This is the latest recevied weather packets stored in our database for station/object K7CTM. If no packets are shown the sender has not sent any weather packets the latest 10 day(s).
| Time | Temp. | Humidity | Pressure | Rain* | Wind** | Luminosity | Snow |
|---|---|---|---|---|---|---|---|
| 1788619933 | 15.56° C | 49% | 1029.4 hPa | 0 mm | - | 212 W/m² | - |
| 1788619632 | 15.56° C | 49% | 1029.5 hPa | 0 mm | - | 197 W/m² | - |
| 1788619332 | 15° C | 49% | 1029.5 hPa | 0 mm | - | 183 W/m² | - |
| 1788619032 | 15° C | 50% | 1029.2 hPa | 0 mm | - | 171 W/m² | - |
| 1788618732 | 15° C | 50% | 1029.4 hPa | 0 mm | - | 48 W/m² | - |
| 1788618425 | 14.44° C | 52% | 1029.4 hPa | 0 mm | - | 46 W/m² | - |
| 1788618125 | 15° C | 51% | 1029.4 hPa | 0 mm | - | 139 W/m² | - |
| 1788617820 | 13.89° C | 53% | 1029.2 hPa | 0 mm | - | 128 W/m² | - |
| 1788617516 | 13.89° C | 52% | 1029.4 hPa | 0 mm | - | 114 W/m² | - |
| 1788617211 | 13.89° C | 53% | 1029 hPa | 0 mm | - | 103 W/m² | - |
| 1788616904 | 13.89° C | 54% | 1029.1 hPa | 0 mm | - | 82 W/m² | - |
| 1788616600 | 13.33° C | 55% | 1029 hPa | 0 mm | - | 82 W/m² | - |
| 1788616296 | 13.33° C | 56% | 1029 hPa | 0 mm | - | 70 W/m² | - |
| 1788615990 | 12.78° C | 58% | 1028.9 hPa | 0 mm | - | 63 W/m² | - |
| 1788615688 | 12.78° C | 58% | 1029.1 hPa | 0 mm | - | 55 W/m² | - |
| 1788615385 | 12.78° C | 59% | 1028.8 hPa | 0 mm | - | 47 W/m² | - |
| 1788615084 | 12.22° C | 60% | 1028.8 hPa | 0 mm | - | 38 W/m² | - |
| 1788614784 | 12.22° C | 60% | 1028.6 hPa | 0 mm | - | 33 W/m² | - |
| 1788614479 | 12.22° C | 61% | 1028.5 hPa | 0 mm | - | 29 W/m² | - |
| 1788614174 | 12.22° C | 60% | 1028.5 hPa | 0 mm | - | 23 W/m² | - |
| 1788613869 | 12.78° C | 59% | 1028.3 hPa | 0 mm | - | 18 W/m² | - |
| 1788613569 | 12.78° C | 58% | 1028.2 hPa | 0 mm | - | 14 W/m² | - |
| 1788613263 | 12.78° C | 59% | 1028.1 hPa | 0 mm | - | 11 W/m² | - |
| 1788612963 | 12.78° C | 59% | 1028 hPa | 0 mm | - | 9 W/m² | - |
| 1788612658 | 12.22° C | 59% | 1027.8 hPa | 0 mm | - | 6 W/m² | - |
* Rain latest hour (hover to see other rain measurements)
** Current wind speed in m/s (hover to see current wind gust speed)